This is the latest recevied weather packets stored in our database for station/object KJ4RDP-13. If no packets are shown the sender has not sent any weather packets the latest 10 day(s).
| Time | Temp. | Humidity | Pressure | Rain* | Wind** | Luminosity | Snow |
|---|---|---|---|---|---|---|---|
| 1778004339 | 22.22° C | 45% | 1015.2 hPa | 0 mm | - | 723 W/m² | - |
| 1778004038 | 22.78° C | 43% | 1015.2 hPa | 0 mm | - | 703 W/m² | - |
| 1778003738 | 22.78° C | 46% | 1015.2 hPa | 0 mm | - | 684 W/m² | - |
| 1778003435 | 22.78° C | 44% | 1015.2 hPa | 0 mm | - | 693 W/m² | - |
| 1778003132 | 21.67° C | 45% | 1015.7 hPa | 0 mm | - | 686 W/m² | - |
| 1778002828 | 22.22° C | 48% | 1015.7 hPa | 0 mm | - | 646 W/m² | - |
| 1778002525 | 22.22° C | 46% | 1016 hPa | 0 mm | - | 684 W/m² | - |
| 1778002222 | 21.67° C | 45% | 1015.7 hPa | 0 mm | - | 693 W/m² | - |
| 1778001920 | 22.22° C | 44% | 1015.7 hPa | 0 mm | - | 638 W/m² | - |
| 1778001615 | 22.22° C | 42% | 1015.7 hPa | 0 mm | - | 598 W/m² | - |
| 1778001311 | 21.67° C | 40% | 1016 hPa | 0 mm | - | 601 W/m² | - |
| 1778001008 | 21.67° C | 46% | 1016 hPa | 0 mm | - | 730 W/m² | - |
| 1778000705 | 21.11° C | 44% | 1015.7 hPa | 0 mm | - | 784 W/m² | - |
| 1778000400 | 21.11° C | 42% | 1015.7 hPa | 0 mm | - | 358 W/m² | - |
| 1778000096 | 21.67° C | 42% | 1016 hPa | 0 mm | - | 688 W/m² | - |
| 1777999791 | 21.67° C | 45% | 1015.7 hPa | 0 mm | - | 762 W/m² | - |
| 1777999483 | 21.67° C | 45% | 1015.7 hPa | 0 mm | - | 386 W/m² | - |
| 1777999181 | 21.11° C | 47% | 1015.7 hPa | 0 mm | - | 438 W/m² | - |
| 1777998879 | 21.11° C | 47% | 1015.7 hPa | 0 mm | - | 658 W/m² | - |
| 1777998578 | 22.22° C | 47% | 1015.7 hPa | 0 mm | - | 643 W/m² | - |
| 1777998273 | 21.67° C | 46% | 1015.7 hPa | 0 mm | - | 574 W/m² | - |
| 1777997970 | 21.11° C | 47% | 1015.7 hPa | 0 mm | - | 714 W/m² | - |
| 1777997667 | 21.11° C | 48% | 1015.7 hPa | 0 mm | - | 603 W/m² | - |
| 1777997365 | 21.67° C | 46% | 1016 hPa | 0 mm | - | 413 W/m² | - |
| 1777997062 | 22.78° C | 49% | 1015.7 hPa | 0 mm | - | 667 W/m² | - |
* Rain latest hour (hover to see other rain measurements)
** Current wind speed in m/s (hover to see current wind gust speed)